TimeMDT,TemperatureF,Dew PointF,Humidity,Sea Level PressureIn,VisibilityMPH,Wind Direction,Wind SpeedMPH,Gust SpeedMPH,PrecipitationIn,Events,Conditions,WindDirDegrees,DateUTC
12:53 AM,18.0,7.0,62,30.00,10.0,NNW,5.8,-,N/A,,Scattered Clouds,330,2013-03-18 06:53:00
1:53 AM,19.0,7.0,59,30.00,10.0,NW,8.1,-,N/A,,Mostly Cloudy,310,2013-03-18 07:53:00
2:53 AM,19.0,8.1,62,30.01,10.0,NNE,6.9,-,N/A,,Overcast,20,2013-03-18 08:53:00
3:53 AM,18.0,10.0,71,30.01,10.0,NNE,3.5,-,N/A,,Overcast,20,2013-03-18 09:53:00
4:53 AM,16.0,10.0,77,30.02,10.0,North,4.6,-,N/A,,Mostly Cloudy,10,2013-03-18 10:53:00
5:53 AM,15.1,8.1,74,30.03,10.0,NW,4.6,-,N/A,,Mostly Cloudy,310,2013-03-18 11:53:00
6:53 AM,14.0,8.1,77,30.03,10.0,NNW,3.5,-,N/A,,Scattered Clouds,330,2013-03-18 12:53:00
7:53 AM,17.1,10.9,77,30.05,10.0,South,3.5,-,N/A,,Mostly Cloudy,170,2013-03-18 13:53:00
8:53 AM,18.0,12.0,78,30.04,10.0,SSW,8.1,-,N/A,,Mostly Cloudy,200,2013-03-18 14:53:00
9:53 AM,21.9,12.0,66,30.02,10.0,SSW,9.2,-,N/A,,Overcast,210,2013-03-18 15:53:00
10:53 AM,28.0,12.9,53,29.98,10.0,SW,11.5,-,N/A,,Mostly Cloudy,220,2013-03-18 16:53:00
11:53 AM,39.0,10.9,32,29.92,10.0,West,21.9,31.1,N/A,,Scattered Clouds,260,2013-03-18 17:53:00
12:04 PM,41.0,6.1,24,29.83,10.0,West,29.9,41.4,N/A,,Scattered Clouds,280,2013-03-18 18:04:00
12:53 PM,42.1,7.0,24,29.90,10.0,West,26.5,35.7,N/A,,Mostly Cloudy,270,2013-03-18 18:53:00
1:53 PM,43.0,6.1,22,29.88,10.0,WNW,25.3,38.0,0.00,,Mostly Cloudy,290,2013-03-18 19:53:00
2:53 PM,41.0,5.0,23,29.88,10.0,WNW,24.2,28.8,N/A,,Mostly Cloudy,290,2013-03-18 20:53:00
3:53 PM,42.1,3.9,21,29.87,10.0,WNW,31.1,42.6,N/A,,Scattered Clouds,290,2013-03-18 21:53:00
4:53 PM,39.9,7.0,26,29.91,10.0,WNW,20.7,-,N/A,,Mostly Cloudy,300,2013-03-18 22:53:00
5:53 PM,37.9,10.9,33,29.92,10.0,West,13.8,-,N/A,,Mostly Cloudy,280,2013-03-18 23:53:00
6:48 PM,37.4,12.2,36,29.84,10.0,NNW,11.5,-,N/A,,Mostly Cloudy,340,2013-03-19 00:48:00
6:53 PM,37.0,12.0,36,29.95,10.0,NNW,13.8,-,N/A,,Mostly Cloudy,340,2013-03-19 00:53:00
7:53 PM,34.0,12.9,42,29.98,10.0,North,8.1,-,N/A,,Overcast,350,2013-03-19 01:53:00
8:53 PM,32.0,15.1,50,30.01,10.0,NW,5.8,-,N/A,,Partly Cloudy,320,2013-03-19 02:53:00
9:53 PM,28.0,14.0,56,30.03,10.0,NW,6.9,-,N/A,,Scattered Clouds,310,2013-03-19 03:53:00
10:53 PM,28.0,14.0,56,30.03,10.0,North,5.8,-,N/A,,Scattered Clouds,360,2013-03-19 04:53:00
11:53 PM,28.9,18.0,64,30.02,10.0,WSW,5.8,-,N/A,,Overcast,240,2013-03-19 05:53:00